User: anonymous   Login
Location: Deep South Regional Star Gaze
(30.9929°N, 90.9586°W)
Time: 08:02:16
(UTC-05:00)
Language:

H-2A R/B - Orbit

View from above orbital plane
View from above orbital plane
View from above satellite
View from above satellite

Ground track
Ground track

The orbit data is extracted from the following two-line orbital elements,

1 26899U 01038B   14292.16521212  .00001691  00000-0  69485-3 0   638
2 26899 028.0364 097.7342 7149790 268.4788 336.7900 02.43949323112552
Epoch (UTC): 19 October 2014 03:57:54
Eccentricity: 0.7149790
inclination: 28.0364°
perigee height: 265 km
apogee height: 33597 km
right ascension of ascending node: 97.7342°
argument of perigee: 268.4788°
revolutions per day: 2.43949323
mean anomaly at epoch: 336.7900°
orbit number at epoch: 11255

The dashed part of the orbit path shows where the satellite is in the earth's shadow,  

DLR